TimeEST,TemperatureF,Dew PointF,Humidity,Sea Level PressureIn,VisibilityMPH,Wind Direction,Wind SpeedMPH,Gust SpeedMPH,PrecipitationIn,Events,Conditions,WindDirDegrees,DateUTC
1:55 AM,33.8,32.0,93,30.13,2.5,NE,5.8,-,0.13,,Overcast,50,2013-01-16 06:55:00
2:15 AM,33.8,32.0,93,30.13,2.0,ENE,5.8,-,0.06,,Overcast,60,2013-01-16 07:15:00
2:35 AM,33.8,32.0,93,30.11,2.5,NE,6.9,-,0.13,,Overcast,50,2013-01-16 07:35:00
2:55 AM,33.8,32.0,93,30.11,2.5,ENE,5.8,-,0.19,,Overcast,60,2013-01-16 07:55:00
3:15 AM,33.8,32.0,93,30.11,2.0,NE,4.6,-,0.05,,Overcast,40,2013-01-16 08:15:00
3:35 AM,33.8,32.0,93,30.10,2.5,ENE,5.8,-,0.10,,Overcast,60,2013-01-16 08:35:00
3:55 AM,33.8,32.0,93,30.10,2.5,Calm,Calm,-,0.14,,Overcast,0,2013-01-16 08:55:00
5:35 AM,33.8,32.0,93,30.06,5.0,East,8.1,-,0.02,,Overcast,80,2013-01-16 10:35:00
5:55 AM,33.8,32.0,93,30.03,4.0,East,9.2,-,0.02,,Overcast,80,2013-01-16 10:55:00
6:15 AM,33.8,32.0,93,30.04,5.0,East,4.6,-,N/A,,Overcast,80,2013-01-16 11:15:00
6:35 AM,33.8,32.0,93,30.05,7.0,Calm,Calm,-,N/A,,Overcast,0,2013-01-16 11:35:00
6:55 AM,33.8,32.0,93,30.04,5.0,Calm,Calm,-,N/A,,Overcast,0,2013-01-16 11:55:00
7:35 AM,33.8,33.8,100,30.03,4.0,NE,3.5,-,N/A,,Overcast,40,2013-01-16 12:35:00
7:55 AM,33.8,33.8,100,30.02,4.0,Calm,Calm,-,N/A,,Overcast,0,2013-01-16 12:55:00
8:15 AM,33.8,33.8,100,30.00,5.0,ENE,4.6,-,N/A,,Overcast,60,2013-01-16 13:15:00
8:35 AM,33.8,33.8,100,29.99,5.0,East,3.5,-,N/A,,Overcast,100,2013-01-16 13:35:00
8:55 AM,33.8,33.8,100,29.98,4.0,Calm,Calm,-,N/A,,Overcast,0,2013-01-16 13:55:00
9:15 AM,33.8,33.8,100,29.98,5.0,Calm,Calm,-,0.01,,Overcast,0,2013-01-16 14:15:00
11:55 AM,35.6,33.8,93,29.93,5.0,Calm,Calm,-,0.01,,Overcast,0,2013-01-16 16:55:00
12:15 PM,35.6,33.8,93,29.90,7.0,South,3.5,-,N/A,,Overcast,190,2013-01-16 17:15:00
12:35 PM,35.6,33.8,93,29.87,4.0,SSE,3.5,-,N/A,,Overcast,150,2013-01-16 17:35:00
12:55 PM,35.6,33.8,93,29.83,2.5,SE,3.5,-,N/A,,Overcast,130,2013-01-16 17:55:00
1:15 PM,35.6,35.6,100,29.88,2.0,NW,8.1,-,N/A,,Overcast,310,2013-01-16 18:15:00
4:35 PM,35.6,35.6,100,29.91,2.5,WSW,3.5,-,N/A,,Overcast,240,2013-01-16 21:35:00
4:55 PM,35.6,35.6,100,29.93,3.0,WNW,4.6,-,N/A,,Overcast,290,2013-01-16 21:55:00
5:15 PM,35.6,35.6,100,29.93,4.0,WNW,4.6,-,N/A,,Overcast,290,2013-01-16 22:15:00
5:35 PM,35.6,35.6,100,29.92,4.0,WSW,3.5,-,N/A,,Overcast,240,2013-01-16 22:35:00
5:55 PM,35.6,35.6,100,29.92,4.0,Calm,Calm,-,N/A,,Overcast,0,2013-01-16 22:55:00
6:15 PM,37.4,35.6,93,29.93,4.0,SW,3.5,-,N/A,,Overcast,230,2013-01-16 23:15:00
6:35 PM,37.4,35.6,93,29.93,4.0,WSW,5.8,-,N/A,,Overcast,240,2013-01-16 23:35:00
6:55 PM,37.4,35.6,93,29.93,4.0,Calm,Calm,-,N/A,,Overcast,0,2013-01-16 23:55:00
7:15 PM,37.4,35.6,93,29.93,4.0,Calm,Calm,-,N/A,,Overcast,0,2013-01-17 00:15:00
7:35 PM,37.4,35.6,93,29.94,4.0,WSW,4.6,-,N/A,,Overcast,250,2013-01-17 00:35:00
7:55 PM,37.4,35.6,93,29.94,4.0,West,3.5,-,N/A,,Overcast,270,2013-01-17 00:55:00
8:15 PM,37.4,35.6,93,29.94,4.0,West,3.5,-,N/A,,Overcast,280,2013-01-17 01:15:00
8:35 PM,37.4,35.6,93,29.95,4.0,West,5.8,-,N/A,,Overcast,280,2013-01-17 01:35:00
8:55 PM,37.4,35.6,93,29.95,4.0,West,3.5,-,N/A,,Overcast,280,2013-01-17 01:55:00
9:15 PM,37.4,35.6,93,29.96,4.0,West,4.6,-,N/A,,Overcast,260,2013-01-17 02:15:00
9:35 PM,37.4,35.6,93,29.95,4.0,WSW,3.5,-,N/A,,Overcast,240,2013-01-17 02:35:00
9:55 PM,37.4,35.6,93,29.93,3.0,WSW,3.5,-,N/A,,Unknown,250,2013-01-17 02:55:00
10:15 PM,37.4,35.6,93,29.94,3.0,Calm,Calm,-,N/A,,Unknown,0,2013-01-17 03:15:00
10:35 PM,37.4,35.6,93,29.94,3.0,WSW,3.5,-,N/A,,Unknown,250,2013-01-17 03:35:00
10:55 PM,37.4,35.6,93,29.95,3.0,Calm,Calm,-,N/A,,Unknown,0,2013-01-17 03:55:00
11:15 PM,37.4,35.6,93,29.95,3.0,Calm,Calm,-,N/A,,Unknown,0,2013-01-17 04:15:00
11:35 PM,37.4,35.6,93,29.94,3.0,Calm,Calm,-,N/A,,Unknown,0,2013-01-17 04:35:00
11:55 PM,37.4,35.6,93,29.94,4.0,Calm,Calm,-,N/A,,Clear,0,2013-01-17 04:55:00